Wind_Speed
50 49 49 48 48 48 48 48 48 47 46 46 46 46 47 47 47 47 48 48 47 47 47 47 47 47 48 47 47 48 48 48 48 48 47 47 47 47
53 53 52 51 50 49 49 49 49 49 49 48 48 48 49 49 49 49 50 51 50 49 49 50 50 49 49 49 49 49 49 49 49 49 49 48 48 48
54 54 54 54 52 51 51 51 50 50 50 50 51 51 51 51 51 51 51 52 52 51 52 52 52 52 52 52 51 51 51 50 51 51 51 50 50 50
55 55 55 55 54 53 53 53 53 53 52 52 52 53 53 53 53 53 53 53 53 53 53 54 54 54 53 53 53 53 52 52 52 52 52 52 52 52
56 56 56 55 55 56 56 56 56 55 55 54 54 54 54 54 54 54 54 55 55 54 55 55 55 55 55 55 54 54 54 54 54 53 54 54 54 54
57 57 57 57 57 57 57 58 58 58 57 56 56 56 55 55 55 55 56 56 56 55 56 56 56 56 56 57 57 57 56 56 56 55 55 56 56 57
57 57 58 58 59 58 59 59 60 60 60 59 58 58 58 58 58 57 58 57 57 57 58 58 58 58 58 58 58 58 58 58 58 57 57 57 58 58
56 56 57 58 59 60 60 60 61 62 62 62 61 61 60 61 60 60 60 60 59 59 60 60 61 60 60 60 60 60 60 60 60 60 59 59 59 59
56 56 57 57 58 60 60 61 62 63 63 63 63 62 62 63 62 62 62 62 61 61 62 61 62 62 62 61 61 61 61 61 61 61 61 61 61 61
58 58 58 59 59 59 60 61 62 63 63 64 64 64 64 63 63 63 64 63 63 62 63 63 63 63 63 62 62 62 62 61 61 61 61 61 61 61
57 57 58 58 58 59 60 60 61 61 61 62 62 63 63 63 64 64 65 65 63 63 63 64 63 64 64 63 63 62 62 62 62 61 61 61 61 61
57 57 57 58 58 59 60 60 60 60 60 60 61 61 62 63 63 64 64 65 65 64 63 65 64 65 64 63 63 62 62 62 62 62 62 62 62 62
57 57 58 58 59 59 59 59 59 59 59 59 59 59 60 61 61 61 62 62 62 62 62 64 64 64 64 62 62 62 62 62 62 62 62 62 61 61
57 57 58 59 60 60 59 59 59 59 59 58 57 57 57 58 58 59 59 60 60 60 60 61 62 62 61 60 60 60 61 61 60 60 60 60 60 60
56 56 57 58 58 59 59 59 59 59 58 57 57 56 56 57 57 57 57 58 58 58 58 57 58 58 58 58 58 58 59 58 58 58 58 58 58 59
54 54 54 55 56 57 57 58 58 58 57 56 56 56 56 56 56 55 55 55 55 54 54 54 55 55 55 55 55 55 56 56 56 56 57 57 57 57
51 51 52 52 53 53 54 54 54 55 55 55 54 54 54 54 54 53 54 53 53 52 52 53 53 53 53 53 52 52 53 54 55 56 56 57 56 56
48 49 49 50 50 50 51 51 51 51 52 52 52 52 52 52 52 52 52 52 51 51 51 51 52 53 52 51 51 51 52 53 54 55 56 56 56 57
46 47 47 47 48 48 48 48 48 48 49 49 50 50 51 51 51 51 50 50 50 50 50 51 52 53 52 51 50 52 52 53 54 54 55 55 56 56
45 45 45 46 46 46 46 46 46 46 47 47 47 48 48 49 49 50 50 49 49 49 49 50 51 52 52 51 51 51 52 53 54 54 54 55 55 55
43 44 44 44 44 44 44 44 45 45 46 46 46 46 46 47 47 48 49 49 49 49 49 49 49 50 51 51 50 50 51 52 53 53 53 54 54 54
42 42 43 43 43 43 43 43 43 44 44 45 44 44 44 45 45 46 47 48 48 48 48 48 48 49 49 49 49 48 49 50 51 51 51 52 52 51
40 40 41 41 41 41 41 41 41 41 41 41 42 42 43 43 43 44 44 45 45 46 46 46 47 47 47 48 48 48 47 48 48 48 48 48 48 48
Wind_Direction
258 259 260 261 261 264 264 264 265 265 266 266 266 267 267 268 268 270 270 271 271 272 271 271 270 269 268 268 268 267 266 265 264 263 262 262 261 259
259 260 262 263 263 263 264 264 264 265 266 267 267 267 267 268 268 270 270 271 271 271 271 271 271 270 269 268 269 268 267 266 263 263 262 261 261 260
259 261 262 263 263 263 263 264 265 266 266 267 267 267 267 268 268 269 270 270 271 272 271 270 271 270 269 268 268 267 267 265 264 263 261 261 261 260
259 260 261 262 263 263 264 264 265 266 267 267 267 267 268 268 268 269 270 270 271 271 271 271 271 270 270 268 268 267 266 265 265 263 262 261 261 260
259 260 261 261 262 263 264 265 266 266 266 267 268 268 268 268 268 270 270 270 271 271 271 271 271 270 270 269 268 266 265 265 264 264 263 262 261 260
260 261 261 261 262 263 264 265 266 266 267 267 267 267 267 268 268 269 270 270 270 271 271 271 270 270 269 269 268 267 266 264 264 263 263 262 261 260
261 261 262 263 263 264 265 266 266 267 268 268 268 268 268 267 268 269 269 269 270 270 270 270 270 269 269 269 268 267 266 265 264 263 263 263 262 261
261 262 263 264 265 266 267 267 267 267 268 268 269 269 269 268 269 269 269 269 269 270 270 269 269 269 269 268 268 267 266 265 264 264 263 263 262 261
262 263 264 264 265 266 267 268 268 269 269 269 269 270 270 269 269 270 270 270 269 269 269 269 269 269 268 268 268 267 266 265 264 264 263 262 262 262
263 264 265 266 267 268 268 269 269 269 270 269 269 270 270 270 270 271 271 271 271 270 270 270 269 269 268 268 268 267 266 265 264 263 262 262 262 261
264 264 265 267 268 269 269 270 270 270 270 269 270 270 270 270 271 271 271 272 271 270 270 271 270 269 268 267 267 267 266 265 264 262 262 262 261 261
264 265 266 267 268 269 270 270 270 270 270 271 270 271 270 271 272 272 272 272 272 271 271 271 270 269 267 266 266 265 266 265 264 262 262 261 261 261
265 266 266 267 268 269 270 270 271 271 271 271 271 271 271 271 272 272 273 273 274 273 272 271 270 269 267 266 264 264 264 264 263 262 261 261 261 261
267 267 267 268 269 269 270 271 271 271 271 272 271 271 271 272 272 272 273 274 274 274 272 272 271 269 267 266 265 264 264 263 262 261 261 260 260 260
268 268 269 269 269 269 270 271 272 272 271 271 271 271 271 272 272 273 274 274 273 272 272 271 271 269 268 266 265 264 263 262 262 261 260 260 261 260
269 269 270 270 270 270 271 271 271 271 271 271 270 270 271 271 272 273 274 274 273 271 270 270 270 270 268 267 266 264 263 262 261 261 261 260 261 261
270 270 271 271 271 272 271 271 271 270 270 270 270 270 270 271 272 273 274 274 274 272 270 270 270 270 269 268 266 265 263 262 262 262 261 260 260 260
271 272 272 272 272 272 272 271 271 271 270 270 270 271 271 271 272 273 274 274 274 273 271 270 269 270 269 268 268 267 265 264 263 263 263 262 261 261
272 273 273 273 273 273 273 272 272 272 272 271 271 271 272 272 272 272 273 274 274 274 273 271 270 269 269 268 268 268 267 265 265 264 263 263 262 261
273 274 274 274 274 274 273 273 273 273 273 273 274 273 273 273 273 272 273 274 274 274 273 272 271 270 270 269 268 268 267 267 266 265 264 264 263 261
275 275 275 275 275 274 274 274 274 273 273 274 275 275 275 275 274 274 274 274 274 274 273 272 271 271 270 270 270 269 268 268 268 267 265 263 262 261
276 276 276 276 276 275 275 275 274 274 274 275 275 276 276 276 275 275 275 274 273 273 273 273 272 271 271 272 272 270 269 269 269 268 266 264 263 262
276 277 277 277 277 276 276 275 275 275 275 275 276 277 277 278 277 276 276 276 274 274 273 274 273 273 273 272 272 271 270 269 268 268 267 265 263 263
Height
5683 5685 5687 5688 5689 5690 5691 5693 5694 5695 5697 5697 5696 5696 5696 5697 5697 5697 5697 5696 5696 5696 5696 5696 5696 5696 5697 5697 5698 5699 5699 5701 5702 5704 5705 5707 5709 5711
5670 5672 5673 5675 5676 5677 5678 5679 5680 5681 5683 5684 5683 5683 5683 5683 5683 5683 5683 5683 5683 5682 5682 5682 5682 5682 5682 5683 5684 5684 5685 5686 5688 5689 5691 5693 5695 5697
5656 5658 5659 5661 5662 5663 5664 5665 5666 5667 5668 5670 5669 5669 5670 5670 5669 5669 5669 5669 5668 5668 5668 5667 5667 5667 5667 5668 5669 5669 5670 5671 5673 5674 5676 5678 5680 5683
5641 5643 5645 5646 5648 5649 5650 5651 5652 5652 5653 5655 5655 5655 5655 5655 5655 5655 5654 5654 5654 5653 5653 5652 5652 5652 5652 5652 5653 5654 5655 5656 5657 5659 5661 5664 5666 5668
5627 5628 5630 5631 5633 5634 5635 5636 5637 5637 5637 5639 5640 5640 5640 5639 5640 5639 5639 5639 5638 5638 5637 5637 5636 5636 5636 5636 5637 5638 5639 5641 5642 5644 5645 5647 5650 5652
5612 5613 5614 5616 5617 5618 5619 5620 5621 5621 5622 5623 5624 5624 5624 5623 5623 5624 5624 5623 5623 5622 5621 5621 5620 5620 5620 5620 5621 5621 5622 5624 5625 5627 5629 5631 5633 5635
5596 5598 5599 5600 5601 5602 5603 5604 5604 5605 5605 5606 5607 5607 5607 5607 5607 5606 5606 5607 5607 5605 5605 5605 5604 5604 5603 5603 5603 5604 5605 5607 5608 5610 5611 5614 5616 5618
5581 5582 5583 5584 5585 5585 5586 5587 5587 5588 5588 5589 5590 5590 5590 5589 5589 5588 5588 5589 5591 5591 5588 5588 5587 5587 5587 5587 5586 5587 5587 5589 5590 5592 5594 5596 5598 5600
5565 5566 5567 5568 5568 5569 5569 5570 5570 5570 5570 5571 5571 5571 5571 5572 5572 5571 5570 5569 5571 5571 5568 5570 5569 5569 5569 5569 5569 5569 5570 5570 5572 5573 5575 5577 5579 5582
5549 5550 5551 5552 5552 5552 5552 5553 5553 5553 5553 5553 5554 5554 5552 5551 5551 5551 5550 5550 5552 5551 5549 5550 5551 5550 5551 5551 5551 5551 5551 5552 5553 5555 5556 5558 5561 5563
5532 5533 5534 5535 5535 5535 5536 5536 5536 5535 5534 5534 5534 5534 5533 5533 5532 5531 5531 5530 5532 5533 5530 5530 5531 5531 5532 5532 5532 5532 5532 5533 5535 5536 5538 5540 5542 5544
5517 5517 5518 5518 5517 5517 5517 5518 5518 5517 5516 5516 5516 5515 5515 5514 5513 5512 5511 5510 5511 5513 5513 5510 5510 5510 5512 5514 5513 5513 5513 5514 5515 5517 5519 5521 5524 5525
5500 5500 5500 5500 5500 5500 5500 5500 5500 5499 5498 5498 5498 5497 5497 5496 5495 5494 5492 5491 5491 5492 5493 5490 5490 5489 5490 5494 5495 5495 5495 5496 5497 5498 5500 5502 5505 5507
5483 5483 5483 5483 5482 5482 5482 5482 5481 5481 5480 5480 5481 5480 5479 5479 5477 5476 5474 5473 5472 5473 5473 5470 5470 5470 5470 5473 5476 5477 5477 5477 5478 5480 5482 5484 5486 5488
5465 5465 5465 5465 5465 5465 5465 5464 5464 5463 5463 5463 5463 5463 5462 5461 5460 5458 5457 5456 5455 5455 5454 5453 5452 5452 5452 5454 5456 5458 5459 5460 5461 5462 5464 5466 5469 5471
5448 5448 5448 5448 5448 5448 5447 5447 5446 5446 5445 5446 5445 5445 5444 5444 5443 5441 5440 5439 5438 5438 5437 5436 5435 5434 5435 5436 5437 5440 5441 5442 5444 5445 5447 5449 5451 5454
5431 5432 5432 5432 5431 5431 5430 5430 5429 5428 5428 5428 5428 5428 5428 5427 5427 5425 5424 5422 5422 5422 5421 5420 5419 5418 5419 5420 5421 5423 5424 5425 5427 5428 5429 5432 5435 5437
5415 5416 5416 5416 5415 5415 5414 5414 5413 5412 5412 5412 5412 5411 5411 5411 5410 5409 5408 5407 5406 5406 5405 5405 5403 5403 5403 5404 5406 5407 5408 5409 5410 5411 5411 5414 5419 5421
5401 5401 5401 5400 5400 5399 5399 5398 5398 5397 5396 5396 5396 5396 5395 5395 5394 5393 5392 5392 5391 5390 5390 5388 5387 5387 5387 5390 5392 5390 5391 5392 5392 5394 5395 5397 5401 5405
5387 5386 5386 5385 5385 5384 5384 5383 5383 5382 5382 5382 5381 5380 5380 5379 5378 5378 5377 5377 5376 5375 5374 5374 5372 5372 5372 5373 5375 5376 5375 5375 5375 5377 5378 5380 5383 5386
5373 5372 5372 5371 5370 5370 5370 5369 5369 5368 5368 5368 5367 5366 5365 5364 5363 5363 5362 5362 5361 5360 5360 5359 5358 5357 5356 5356 5358 5361 5360 5358 5358 5359 5361 5362 5365 5368
5360 5359 5358 5358 5357 5356 5356 5355 5355 5355 5354 5354 5353 5352 5351 5350 5349 5348 5347 5347 5346 5345 5345 5345 5343 5342 5341 5341 5342 5344 5344 5343 5342 5342 5343 5345 5347 5352
5348 5347 5346 5345 5344 5343 5343 5342 5342 5341 5341 5340 5340 5339 5338 5336 5335 5334 5333 5332 5331 5331 5330 5330 5329 5328 5327 5326 5327 5328 5328 5328 5328 5328 5329 5330 5332 5335